Wetterdaten: aktuell Donnerstag, 24.05.2018 02:25
Datum Zeit Temp. A. Feuchte A. Luftdruck Regen Wind Richtung Richtung Windben
24.05.2018 02:25 16,6 C 91 % 1017,8 hPa 0,0 l/m 5,8 km/h N 7 32,2 km/h
24.05.2018 02:20 16,1 C 93 % 1018,2 hPa 0,0 l/m 0,1 km/h O 96 4,8 km/h
24.05.2018 02:15 15,7 C 93 % 1018,3 hPa 0,0 l/m 0,0 km/h SW 221 0,0 km/h
24.05.2018 02:10 15,7 C 93 % 1017,9 hPa 0,0 l/m 0,0 km/h N-NW 338 0,0 km/h
24.05.2018 02:05 15,7 C 93 % 1017,7 hPa 0,0 l/m 0,0 km/h N-NW 338 0,0 km/h
24.05.2018 02:00 15,7 C 93 % 1017,8 hPa 0,0 l/m 0,0 km/h N-NW 338 0,0 km/h
24.05.2018 01:55 15,7 C 93 % 1017,7 hPa 0,0 l/m 0,0 km/h N-NW 338 0,0 km/h
24.05.2018 01:50 15,6 C 93 % 1017,7 hPa 0,0 l/m 0,0 km/h N-NW 338 0,0 km/h
24.05.2018 01:45 15,6 C 92 % 1017,6 hPa 0,0 l/m 0,0 km/h N-NW 337 0,0 km/h
24.05.2018 01:40 15,7 C 92 % 1017,5 hPa 0,0 l/m 0,0 km/h N-NW 343 0,0 km/h
24.05.2018 01:35 15,8 C 92 % 1017,6 hPa 0,0 l/m 0,0 km/h N 7 0,0 km/h
24.05.2018 01:30 15,9 C 92 % 1017,6 hPa 0,0 l/m 0,0 km/h N-NW 339 0,0 km/h
24.05.2018 01:25 16,2 C 92 % 1017,6 hPa 0,0 l/m 0,0 km/h W-NW 299 0,0 km/h
24.05.2018 01:20 16,3 C 92 % 1017,6 hPa 0,0 l/m 0,0 km/h W-NW 299 0,0 km/h
24.05.2018 01:15 16,3 C 91 % 1017,6 hPa 0,0 l/m 0,0 km/h W-NW 299 0,0 km/h
24.05.2018 01:10 16,4 C 91 % 1017,6 hPa 0,0 l/m 0,0 km/h W-NW 299 0,0 km/h
24.05.2018 01:05 16,4 C 90 % 1017,6 hPa 0,0 l/m 0,0 km/h W-NW 299 0,0 km/h
24.05.2018 01:00 16,7 C 90 % 1017,6 hPa 0,0 l/m 0,0 km/h W-NW 299 0,0 km/h
24.05.2018 00:55 16,9 C 90 % 1017,6 hPa 0,0 l/m 0,0 km/h W-NW 299 0,0 km/h
24.05.2018 00:50 17,1 C 90 % 1017,6 hPa 0,0 l/m 0,0 km/h W-NW 299 0,0 km/h
24.05.2018 00:45 17,2 C 89 % 1017,6 hPa 0,0 l/m 0,0 km/h W-NW 299 0,0 km/h
24.05.2018 00:40 17,3 C 89 % 1017,6 hPa 0,0 l/m 0,0 km/h NW 304 0,0 km/h
24.05.2018 00:35 17,2 C 89 % 1017,5 hPa 0,0 l/m 0,0 km/h NW 318 0,0 km/h
24.05.2018 00:30 17,1 C 90 % 1017,4 hPa 0,0 l/m 0,0 km/h NW 321 0,0 km/h
24.05.2018 00:25 16,9 C 92 % 1017,4 hPa 0,0 l/m 0,0 km/h NW 314 0,0 km/h
24.05.2018 00:20 16,7 C 92 % 1017,4 hPa 0,0 l/m 0,0 km/h N-NW 329 1,6 km/h
24.05.2018 00:15 16,5 C 93 % 1017,4 hPa 0,0 l/m 0,0 km/h N 352 0,0 km/h
24.05.2018 00:10 16,5 C 93 % 1017,5 hPa 0,0 l/m 0,0 km/h N 7 0,0 km/h
24.05.2018 00:05 16,4 C 92 % 1017,8 hPa 0,0 l/m 0,0 km/h N-NW 339 0,0 km/h
24.05.2018 00:00 16,4 C 92 % 1017,9 hPa 0,0 l/m 0,0 km/h N 350 0,0 km/h
23.05.2018 23:55 16,5 C 91 % 1018,0 hPa 0,0 l/m 0,0 km/h N-NW 337 0,0 km/h
23.05.2018 23:50 16,7 C 91 % 1018,1 hPa 0,0 l/m 0,0 km/h N-NW 337 0,0 km/h
23.05.2018 23:45 16,7 C 91 % 1018,1 hPa 0,0 l/m 0,0 km/h N-NW 337 0,0 km/h
23.05.2018 23:40 16,8 C 91 % 1018,2 hPa 0,0 l/m 0,0 km/h N-NW 337 0,0 km/h
23.05.2018 23:35 16,7 C 91 % 1018,2 hPa 0,0 l/m 0,0 km/h N-NW 337 0,0 km/h
23.05.2018 23:30 16,7 C 91 % 1018,1 hPa 0,0 l/m 0,0 km/h N-NW 337 0,0 km/h
23.05.2018 23:25 16,6 C 91 % 1018,2 hPa 0,0 l/m 0,0 km/h N-NW 337 0,0 km/h
23.05.2018 23:20 16,6 C 91 % 1018,1 hPa 0,0 l/m 0,0 km/h N-NW 345 0,0 km/h
23.05.2018 23:15 16,5 C 91 % 1018,2 hPa 0,0 l/m 0,0 km/h N 349 0,0 km/h
23.05.2018 23:10 16,6 C 91 % 1018,2 hPa 0,0 l/m 0,0 km/h N-NW 346 0,0 km/h
23.05.2018 23:05 16,6 C 91 % 1018,2 hPa 0,0 l/m 0,0 km/h N-NW 346 1,6 km/h
23.05.2018 23:00 16,6 C 91 % 1018,4 hPa 0,0 l/m 0,0 km/h N-NW 331 0,0 km/h
23.05.2018 22:55 16,6 C 91 % 1018,4 hPa 0,0 l/m 0,0 km/h N-NW 331 0,0 km/h
23.05.2018 22:50 16,5 C 91 % 1018,5 hPa 0,0 l/m 0,0 km/h N-NW 329 0,0 km/h
23.05.2018 22:45 16,4 C 91 % 1018,5 hPa 0,0 l/m 0,0 km/h N 349 0,0 km/h
23.05.2018 22:40 16,4 C 91 % 1018,4 hPa 0,0 l/m 0,0 km/h N-NW 348 0,0 km/h
23.05.2018 22:35 16,4 C 91 % 1018,5 hPa 0,0 l/m 0,0 km/h N-NW 338 0,0 km/h
23.05.2018 22:30 16,4 C 91 % 1018,5 hPa 0,0 l/m 0,0 km/h N-NW 333 0,0 km/h
23.05.2018 22:25 16,4 C 91 % 1018,6 hPa 0,0 l/m 0,0 km/h N-NW 345 0,0 km/h
23.05.2018 22:20 16,4 C 91 % 1018,5 hPa 0,0 l/m 0,0 km/h N 350 0,0 km/h
23.05.2018 22:15 16,4 C 91 % 1018,6 hPa 0,0 l/m 0,0 km/h N-NW 335 0,0 km/h
23.05.2018 22:10 16,4 C 91 % 1018,6 hPa 0,0 l/m 0,0 km/h N-NW 335 0,0 km/h
23.05.2018 22:05 16,5 C 90 % 1018,5 hPa 0,0 l/m 0,0 km/h N-NW 335 0,0 km/h
23.05.2018 22:00 16,6 C 90 % 1018,5 hPa 0,0 l/m 0,0 km/h N-NW 335 0,0 km/h
23.05.2018 21:55 16,7 C 90 % 1018,5 hPa 0,0 l/m 0,0 km/h N-NW 335 0,0 km/h
23.05.2018 21:49 16,7 C 91 % 1018,4 hPa 0,0 l/m 0,0 km/h N-NW 335 0,0 km/h
23.05.2018 21:45 16,7 C 90 % 1018,3 hPa 0,0 l/m 0,0 km/h N-NW 335 0,0 km/h
23.05.2018 21:40 16,7 C 91 % 1018,1 hPa 0,0 l/m 0,0 km/h N-NW 335 0,0 km/h
23.05.2018 21:35 16,7 C 91 % 1018,1 hPa 0,0 l/m 0,0 km/h NW 321 0,0 km/h
23.05.2018 21:30 16,8 C 91 % 1018,1 hPa 0,0 l/m 0,0 km/h NW 321 0,0 km/h
23.05.2018 21:25 16,8 C 90 % 1018,1 hPa 0,0 l/m 0,0 km/h NW 321 0,0 km/h
23.05.2018 21:20 16,9 C 90 % 1018,0 hPa 0,0 l/m 0,0 km/h NW 321 0,0 km/h
23.05.2018 21:15 17,0 C 90 % 1018,0 hPa 0,0 l/m 0,0 km/h NW 321 0,0 km/h
23.05.2018 21:10 16,9 C 91 % 1017,9 hPa 0,0 l/m 0,0 km/h W-NW 298 0,0 km/h
23.05.2018 21:05 16,9 C 91 % 1017,8 hPa 0,0 l/m 0,0 km/h NW 309 0,0 km/h
23.05.2018 21:00 16,9 C 91 % 1017,7 hPa 0,0 l/m 0,0 km/h N 352 0,0 km/h
23.05.2018 20:55 17,0 C 91 % 1017,6 hPa 0,0 l/m 0,0 km/h N-NO 12 0,0 km/h
23.05.2018 20:50 17,0 C 91 % 1017,6 hPa 0,0 l/m 0,0 km/h N-NO 17 0,0 km/h
23.05.2018 20:45 17,1 C 91 % 1017,5 hPa 0,0 l/m 0,0 km/h N 359 0,0 km/h
23.05.2018 20:40 17,1 C 91 % 1017,5 hPa 0,0 l/m 0,0 km/h N 357 0,0 km/h
23.05.2018 20:35 17,2 C 91 % 1017,4 hPa 0,0 l/m 0,0 km/h N-NO 17 0,0 km/h
23.05.2018 20:30 17,2 C 90 % 1017,3 hPa 0,0 l/m 0,0 km/h N-NO 12 0,0 km/h
23.05.2018 20:25 17,3 C 90 % 1017,1 hPa 0,0 l/m 0,0 km/h N 1 0,0 km/h
23.05.2018 20:20 17,3 C 91 % 1017,2 hPa 0,0 l/m 0,0 km/h N 1 0,0 km/h
23.05.2018 20:15 17,4 C 91 % 1017,1 hPa 0,0 l/m 0,0 km/h N 2 0,0 km/h
23.05.2018 20:09 17,4 C 91 % 1017,1 hPa 0,0 l/m 0,0 km/h N-NO 12 0,0 km/h
23.05.2018 20:05 17,4 C 91 % 1017,1 hPa 0,0 l/m 0,0 km/h N 0 0,0 km/h
23.05.2018 20:00 17,4 C 90 % 1017,0 hPa 0,0 l/m 0,0 km/h N 0 0,0 km/h
23.05.2018 19:55 17,3 C 90 % 1017,0 hPa 0,0 l/m 0,0 km/h N 0 0,0 km/h
23.05.2018 19:50 17,4 C 90 % 1016,9 hPa 0,0 l/m 0,0 km/h N 0 0,0 km/h
23.05.2018 19:45 17,5 C 90 % 1016,9 hPa 0,0 l/m 0,0 km/h N 0 0,0 km/h
23.05.2018 19:40 17,5 C 90 % 1016,9 hPa 0,0 l/m 0,0 km/h N 0 0,0 km/h
23.05.2018 19:35 17,6 C 89 % 1016,8 hPa 0,0 l/m 0,0 km/h N 0 0,0 km/h
23.05.2018 19:30 17,7 C 89 % 1016,9 hPa 0,0 l/m 0,0 km/h N 0 0,0 km/h
23.05.2018 19:25 17,9 C 89 % 1016,8 hPa 0,0 l/m 0,0 km/h N 0 0,0 km/h
23.05.2018 19:20 18,0 C 89 % 1016,6 hPa 0,0 l/m 0,0 km/h N 0 0,0 km/h
23.05.2018 19:15 18,2 C 88 % 1016,5 hPa 0,0 l/m 0,0 km/h N 0 0,0 km/h
23.05.2018 19:10 18,3 C 87 % 1016,5 hPa 0,0 l/m 0,0 km/h N 0 0,0 km/h
23.05.2018 19:05 18,4 C 87 % 1016,5 hPa 0,0 l/m 0,0 km/h N 0 0,0 km/h
23.05.2018 19:00 18,6 C 87 % 1016,4 hPa 0,0 l/m 0,0 km/h N 0 0,0 km/h
23.05.2018 18:55 18,7 C 86 % 1016,4 hPa 0,0 l/m 0,0 km/h N 0 0,0 km/h
23.05.2018 18:50 18,9 C 86 % 1016,4 hPa 0,0 l/m 0,0 km/h N 0 0,0 km/h
23.05.2018 18:45 19,1 C 85 % 1016,5 hPa 0,0 l/m 0,0 km/h N 0 0,0 km/h
23.05.2018 18:40 19,1 C 83 % 1016,5 hPa 0,0 l/m 0,0 km/h N 0 0,0 km/h
23.05.2018 18:35 19,3 C 80 % 1016,5 hPa 0,0 l/m 0,0 km/h N 0 0,0 km/h
23.05.2018 18:30 19,5 C 80 % 1016,5 hPa 0,0 l/m 0,0 km/h N 0 0,0 km/h
23.05.2018 18:25 19,5 C 81 % 1016,5 hPa 0,0 l/m 0,0 km/h N 0 0,0 km/h
_ Min-Zeit 05:20 16:40 03:00 - 03:00 - - 03:00
Minimum _ 11,3 C 57 % 1015,7 hPa - 0,0 km/h - - 0,0 km/h
_ Max-Zeit 16:20 07:40 22:10 17:10 02:25 - - 02:25
Maximum _ 24,3 C 97 % 1018,6 hPa 0,6 l/m 5,8 km/h
N
- - 32,2 km/h
N
Durchschnitt _ 17,5 C 84 % 1017,0 hPa #1,4 l/m 0,0 km/h N - 0,2 km/h